Aeroporto :
LOGIN :

Iscrizione | Disclaimer

   EN    FR    IT 

 










Sommario :    VFR   VFR Marginale   IFR   IFR Intensivo   IFR Molto Intensivo
Visibilità : 
Base nubi : 
>= 8 km
>= 3000ft
5 / 8 km
1000 / 3000 ft
1500m / 5 km
500 / 1000 ft
800 / 1500m
200 / 500 ft
< 800m
< 200 ft
Simboli :   Temporali  Nebbia  Neve Forte  Precipitazioni Forti  Vento > 20 kt
SIGMETs :   Varie  Temporali  Ghiacco  Turbolenza  Onda orograficha  Ceneri Vulcaniche







- Altitudine del aeroporto : 726 ft
- Codice IATA : DIJ
- Carte del aeroporto


LFSD - Dijon

ULTIMO METAR :
  • 162000Z AUTO 01003KT CAVOK 18/12 Q1020

METARs OBSOLETI :
  • 161930Z AUTO 04004KT CAVOK 19/12 Q1020
  • 161900Z AUTO 06004KT CAVOK 20/12 Q1020
  • 161830Z AUTO 07006KT CAVOK 21/12 Q1020
  • 161800Z AUTO 07006KT CAVOK 22/12 Q1020
  • 161730Z AUTO 04006KT 360V060 CAVOK 23/11 Q1021

Previsioni scadute.
Nessun NOTAM noto per questo aeroporto.



MetMap, La meteo Aeronautica in un colpo d'occhio ! - Copyright ORBIFLY Dicembre 2007 - Disclaimer

ORBIFLY MET'MAP TEAM :

Programmazione e sviluppo : Alexandra Zaïnal
Concezione e sviluppo : Baudouin d'Aumeries
Co-Programmazione e sviluppo : Marc-Olivier Méhu
Supporto tecnico e logistico : Manuel Goepfert
Aiuto per la traduzione : Arnaldo La Scala

Contatto : metmap@orbifly.com




FONTI E CREDITI :

   NOAA